Skip Page Navigation
NASA JPL Caltech
NASA Logo - Jet Propulsion Laboratory + View the NASA Portal
+ Near-Earth Object (NEO) Program
Search JPL
JPL Home Earth Solar System Stars & Galaxies Technology
JPL Solar System Dynamics
BODIES ORBITS EPHEMERIDES TOOLS PHYSICAL DATA DISCOVERY FAQ SITE MAP
JPL Small-Body Database Browser
Search: [ help ]  
(2008 GM2)
Classification: Apollo [NEO]          SPK-ID: 3408244
Ephemeris | Orbit Diagram | Orbital Elements | Physical Parameters | Close-Approach Data ]

[ hide orbit diagram ]
Orbit Diagram
Note: Make sure you have Java enabled on your browser to see the applet. This applet is provided as a 3D orbit visualization tool. The applet was implemented using 2-body methods, and hence should not be used for determining accurate long-term trajectories (over several years or decades) or planetary encounter circumstances. For accurate long-term ephemerides, please instead use our Horizons system.
Orbit Viewer

Additional Notes: the orbits shown in the applet are color coded. The planets are white lines, and the asteroid/comet is a blue line. The bright white line indicates the portion of the orbit that is above the ecliptic plane, and the darker portion is below the ecliptic plane. Likewise for the asteroid/comet orbit, the light blue indicates the portion above the ecliptic plane, and the dark blue the portion below the ecliptic plane.

Orbit Viewer applet originally written and kindly provided by Osamu Ajiki (AstroArts), and further modified by Ron Baalke (JPL).


Orbital Elements at Epoch 2456400.5 (2013-Apr-18.0) TDB
Reference: JPL 9 (heliocentric ecliptic J2000)
 Element Value Uncertainty (1-sigma)   Units 
e .1572560175202634 5.7962e-05  
a 1.051872687972097 3.0769e-05 AU
q .8864593781232707 3.5079e-05 AU
i 4.096847753736676 0.0016091 deg
node 195.1036603690501 0.00020844 deg
peri 278.2593955205842 0.00062901 deg
M 304.6451587421317 0.080577 deg
tp 2456461.089351457889
(2013-Jun-17.58935146)
0.090855 JED
period 394.0426172162398
1.08
0.017289
4.733e-05
d
yr
n .9136067630025962 4.0086e-05 deg/d
Q 1.217285997820924 3.5607e-05 AU
  Orbit Determination Parameters
   # obs. used (total)      54  
   data-arc span      8 days  
   first obs. used      2008-04-06  
   last obs. used      2008-04-14  
   planetary ephem.      DE405  
   SB-pert. ephem.      SB405-CPV-2  
   condition code      5  
   fit RMS      .35473  
   data source      ORB  
   producer      Otto Matic  
   solution date      2011-Sep-14 20:27:20  

Additional Information
 Earth MOID = .00128423 AU 
 T_jup = 5.833 
[ show covariance matrix ]

Ephemeris | Orbit Diagram | Orbital Elements | Physical Parameters | Close-Approach Data ]

Physical Parameter Table
Parameter Symbol Value Units Sigma Reference Notes
absolute magnitude H 28.356 mag .30159 9 autocmod 2.5a

[ show close-approach data ]
Ephemeris | Orbit Diagram | Orbital Elements | Physical Parameters | Close-Approach Data ]
ABOUT SSD CREDITS/AWARDS PRIVACY/COPYRIGHT GLOSSARY LINKS
FirstGov 2013-Jun-20 12:23 UT
(server date/time)  
NASA Home Page
Site Manager:   Donald K. Yeomans
Webmaster  Alan B. Chamberlin